Regional Weather Roundup
Issued by NWS Little Rock, AR

Home | Current Version | Previous Version | Graphics & Text | Print | Product List | Glossary On
Versions: 1 2 3 4 5 6 7 8 9 10 11 12 13 14 15 16 17 18 19 20 21 22 23 24 25 26 27 28 29 30 31 32 33 34 35 36 37 38 39 40 41 42 43 44 45 46 47 48 49 50
000
ASUS44 KLZK 281105
RWRLZK

WEATHER ROUNDUP FOR ARKANSAS
NATIONAL WEATHER SERVICE LITTLE ROCK AR
600 AM CDT THU MAY 28 2015

NOTE: "FAIR" INDICATES FEW OR NO CLOUDS BELOW 12,000 FEET WITH NO
SIGNIFICANT WEATHER AND/OR OBSTRUCTIONS TO VISIBILITY.

ARZ001-003-010-029-281200-
NORTHWEST ARKANSAS

CITY           SKY/WX    TMP DP  RH WIND       PRES   REMARKS
FAYETTEVILLE   MOCLDY    60  60 100 CALM      30.10R
FORT SMITH     MOCLDY    68  65  90 NE6       30.07F
HARRISON       FOG       64  64 100 SE5       30.12S VSB 1/4
BENTONVILLE    PTCLDY    64  61  88 SE3       30.11R
ROGERS         FOG       65  64  97 E5        30.11R VSB 1/4
SILOAM SPGS    MOCLDY    63  55  77 E3        30.10S
SPRINGDALE     PTCLDY    64  63  94 CALM      30.12
$$

ARZ004-005-016-281200-
NORTH CENTRAL ARKANSAS

CITY           SKY/WX    TMP DP  RH WIND       PRES   REMARKS
BATESVILLE     CLOUDY    70  66  88 CALM      30.12R
FLIPPIN        CLOUDY    70  66  88 CALM      30.11R
MTN HOME       CLOUDY    68  67  96 S3        30.12R
$$

ARZ040-041-281200-
WEST CENTRAL ARKANSAS

CITY           SKY/WX    TMP DP  RH WIND       PRES   REMARKS
MENA           MOCLDY    64  63  94 CALM      30.12F
MOUNT IDA      MOCLDY    66  64  93 CALM      30.10R
$$

ARZ009-017-025-026-028-281200-
NORTHEAST ARKANSAS

CITY           SKY/WX    TMP DP  RH WIND       PRES   REMARKS
CORNING        FAIR      66  66 100 SE5       30.14R FOG
JONESBORO      CLOUDY    67  67 100 CALM      30.13R
NEWPORT        CLOUDY    67  67 100 E3        30.14R
WALNUT RIDGE   PTCLDY    66  64  94 E5        30.13R
BLYTHEVILLE    CLOUDY    67  67 100 SW5       30.14R FOG
$$

ARZ022-023-033-042-044-281200-
CENTRAL ARKANSAS

CITY           SKY/WX    TMP DP  RH WIND       PRES   REMARKS
LITTLE ROCK    FOG       70  67  90 CALM      30.12R VSB 1/4
N LITTLE ROCK    N/A     70  69  99 SW6       30.12R
JACKSONVILLE   CLOUDY    72  70  94 S3        30.12R
HOT SPRINGS    PTCLDY    69  66  90 E3        30.11R
RUSSELLVILLE   PTCLDY    69  68  96 CALM      30.10R
CLINTON        CLOUDY    72  70  94 CALM      30.13S
$$

ARZ036-281200-
EAST ARKANSAS

CITY           SKY/WX    TMP DP  RH WIND       PRES   REMARKS
$$

ARZ050-053-066-070-073-281200-
SOUTHWEST ARKANSAS

CITY           SKY/WX    TMP DP  RH WIND       PRES   REMARKS
CAMDEN         FOG       63  61  94 CALM      30.11R VSB<1/4
TEXARKANA      MOCLDY    69  68  96 SE5       30.09S
EL DORADO      CLEAR     65  63  93 CALM      30.11R
DE QUEEN       MOCLDY    68  67  96 E20       30.08R
$$

ARZ056-057-069-281200-
SOUTHEAST ARKANSAS

CITY           SKY/WX    TMP DP  RH WIND       PRES   REMARKS
PINE BLUFF     CLOUDY    69  69 100 S3        30.11R FOG
STUTTGART      CLOUDY    68  66  94 S5        30.12R VSB 1/2
MONTICELLO     FOG       66  66 100 CALM      30.11R VSB 1/4

$$





USA.gov is the U.S. government's official web portal to all federal, state and local government web resources and services.